Time,TemperatureF,DewpointF,PressureIn,WindDirection,WindDirectionDegrees,WindSpeedMPH,WindSpeedGustMPH,Humidity,HourlyPrecipIn,Conditions,Clouds,dailyrainin,SoftwareType,DateUTC
2013-05-21 00:00:00,62.3,61.7,29.97,ESE,121,0.0,4.0,98,0.00,,,0.00,Wunderground v.1.15,2013-05-21 04:00:00,
2013-05-21 00:10:00,61.6,61.0,29.97,ESE,121,0.0,0.0,98,0.00,,,0.00,Wunderground v.1.15,2013-05-21 04:10:00,
2013-05-21 00:20:00,61.6,61.0,29.95,ESE,121,0.0,0.0,98,0.00,,,0.00,Wunderground v.1.15,2013-05-21 04:20:00,
2013-05-21 00:29:00,61.2,60.6,29.95,ESE,121,0.0,0.0,98,0.00,,,0.00,Wunderground v.1.15,2013-05-21 04:29:00,
2013-05-21 00:40:00,61.2,60.9,29.94,ESE,121,0.0,0.0,99,0.00,,,0.00,Wunderground v.1.15,2013-05-21 04:40:00,
2013-05-21 00:50:00,60.5,60.2,29.95,ESE,121,0.0,0.0,99,0.00,,,0.00,Wunderground v.1.15,2013-05-21 04:50:00,
2013-05-21 01:00:00,60.4,60.1,29.95,ESE,121,0.0,0.0,99,0.00,,,0.00,Wunderground v.1.15,2013-05-21 05:00:00,
2013-05-21 01:09:00,60.2,59.9,29.94,ESE,121,0.0,0.0,99,0.00,,,0.00,Wunderground v.1.15,2013-05-21 05:09:00,
2013-05-21 01:19:00,59.8,59.5,29.94,ESE,121,0.0,0.0,99,0.00,,,0.00,Wunderground v.1.15,2013-05-21 05:19:00,
2013-05-21 01:30:00,60.1,59.8,29.94,ESE,121,0.0,0.0,99,0.00,,,0.00,Wunderground v.1.15,2013-05-21 05:30:00,
2013-05-21 01:40:00,60.4,60.1,29.93,ESE,121,0.0,0.0,99,0.00,,,0.00,Wunderground v.1.15,2013-05-21 05:40:00,
2013-05-21 01:50:00,60.2,59.9,29.92,ESE,121,0.0,0.0,99,0.00,,,0.00,Wunderground v.1.15,2013-05-21 05:50:00,
2013-05-21 02:00:00,59.9,59.6,29.92,ESE,121,0.0,0.0,99,0.00,,,0.00,Wunderground v.1.15,2013-05-21 06:00:00,
2013-05-21 02:09:00,59.8,59.5,29.92,ESE,121,0.0,0.0,99,0.00,,,0.00,Wunderground v.1.15,2013-05-21 06:09:00,
2013-05-21 02:20:00,59.6,59.6,29.91,ESE,121,0.0,0.0,100,0.00,,,0.00,Wunderground v.1.15,2013-05-21 06:20:00,
2013-05-21 02:30:00,59.6,59.6,29.91,ESE,121,0.0,0.0,100,0.00,,,0.00,Wunderground v.1.15,2013-05-21 06:30:00,
2013-05-21 02:40:00,59.6,59.6,29.92,ESE,121,0.0,0.0,100,0.00,,,0.00,Wunderground v.1.15,2013-05-21 06:40:00,
2013-05-21 02:50:00,60.2,60.2,29.91,ESE,121,0.0,0.0,100,0.00,,,0.00,Wunderground v.1.15,2013-05-21 06:50:00,
2013-05-21 02:59:00,61.0,61.0,29.91,ESE,121,0.0,0.0,100,0.00,,,0.00,Wunderground v.1.15,2013-05-21 06:59:00,
2013-05-21 03:10:00,60.9,60.9,29.89,ESE,121,0.0,0.0,100,0.00,,,0.00,Wunderground v.1.15,2013-05-21 07:10:00,
2013-05-21 03:20:00,60.1,60.1,29.89,ESE,121,0.0,0.0,100,0.00,,,0.00,Wunderground v.1.15,2013-05-21 07:20:00,
2013-05-21 03:29:00,59.9,59.9,29.89,ESE,121,0.0,0.0,100,0.00,,,0.00,Wunderground v.1.15,2013-05-21 07:29:00,
2013-05-21 03:39:00,59.9,59.9,29.91,ESE,121,0.0,0.0,100,0.00,,,0.00,Wunderground v.1.15,2013-05-21 07:39:00,
2013-05-21 03:49:00,59.8,59.8,29.90,ESE,121,0.0,0.0,100,0.00,,,0.00,Wunderground v.1.15,2013-05-21 07:49:00,
2013-05-21 04:00:00,60.1,60.1,29.90,ESE,121,0.0,0.0,100,0.00,,,0.00,Wunderground v.1.15,2013-05-21 08:00:00,
2013-05-21 04:10:00,60.2,60.2,29.90,ESE,121,0.0,0.0,100,0.00,,,0.00,Wunderground v.1.15,2013-05-21 08:10:00,
2013-05-21 04:19:00,59.9,59.9,29.90,ESE,121,0.0,0.0,100,0.00,,,0.00,Wunderground v.1.15,2013-05-21 08:19:00,
2013-05-21 04:29:00,60.1,60.1,29.90,ESE,121,0.0,0.0,100,0.00,,,0.00,Wunderground v.1.15,2013-05-21 08:29:00,
2013-05-21 04:40:00,59.8,59.8,29.90,ESE,121,0.0,0.0,100,0.00,,,0.00,Wunderground v.1.15,2013-05-21 08:40:00,
2013-05-21 04:50:00,59.9,59.9,29.92,ESE,121,0.0,0.0,100,0.00,,,0.00,Wunderground v.1.15,2013-05-21 08:50:00,
2013-05-21 05:00:00,61.2,61.2,29.92,ESE,121,0.0,0.0,100,0.00,,,0.00,Wunderground v.1.15,2013-05-21 09:00:00,
2013-05-21 05:10:00,62.0,62.0,29.91,ENE,75,0.0,0.0,100,0.00,,,0.00,Wunderground v.1.15,2013-05-21 09:10:00,
2013-05-21 05:19:00,62.3,62.3,29.87,ESE,102,1.0,1.0,100,0.00,,,0.00,Wunderground v.1.15,2013-05-21 09:19:00,
2013-05-21 05:30:00,63.1,63.1,29.87,SE,131,2.0,2.0,100,0.00,,,0.00,Wunderground v.1.15,2013-05-21 09:30:00,
2013-05-21 05:40:00,64.0,64.0,29.84,ENE,60,3.0,3.0,100,0.00,,,0.00,Wunderground v.1.15,2013-05-21 09:40:00,
2013-05-21 05:50:00,63.9,63.9,29.84,SSE,154,1.0,1.0,100,0.00,,,0.00,Wunderground v.1.15,2013-05-21 09:50:00,
2013-05-21 06:00:00,62.7,62.1,29.84,South,188,0.0,0.0,98,0.00,,,0.00,Wunderground v.1.15,2013-05-21 10:00:00,
2013-05-21 06:10:00,62.0,61.4,29.86,South,189,1.0,1.0,98,0.00,,,0.00,Wunderground v.1.15,2013-05-21 10:10:00,
2013-05-21 06:20:00,62.0,61.7,29.88,South,189,0.0,0.0,99,0.00,,,0.00,Wunderground v.1.15,2013-05-21 10:20:00,
2013-05-21 06:30:00,62.7,62.4,29.88,East,86,0.0,0.0,99,0.00,,,0.00,Wunderground v.1.15,2013-05-21 10:30:00,
2013-05-21 06:40:00,63.2,62.6,29.89,ESE,102,0.0,0.0,98,0.00,,,0.00,Wunderground v.1.15,2013-05-21 10:40:00,
2013-05-21 06:50:00,63.4,62.8,29.89,SE,131,0.0,0.0,98,0.00,,,0.00,Wunderground v.1.15,2013-05-21 10:50:00,
2013-05-21 07:00:00,63.5,62.6,29.89,SE,131,0.0,0.0,97,0.00,,,0.00,Wunderground v.1.15,2013-05-21 11:00:00,
2013-05-21 07:10:00,63.9,63.0,29.89,SE,131,0.0,8.0,97,0.00,,,0.00,Wunderground v.1.15,2013-05-21 11:10:00,
2013-05-21 07:20:00,63.9,63.0,29.89,SE,131,0.0,8.0,97,0.00,,,0.00,Wunderground v.1.15,2013-05-21 11:20:00,
2013-05-21 07:30:00,64.0,63.1,29.89,SE,131,0.0,8.0,97,0.00,,,0.00,Wunderground v.1.15,2013-05-21 11:30:00,
2013-05-21 07:40:00,64.2,63.3,29.89,SE,131,0.0,8.0,97,0.00,,,0.00,Wunderground v.1.15,2013-05-21 11:40:00,
2013-05-21 07:49:00,64.7,63.8,29.89,SE,131,0.0,8.0,97,0.00,,,0.00,Wunderground v.1.15,2013-05-21 11:49:00,
2013-05-21 07:59:00,65.3,64.1,29.89,SE,131,0.0,8.0,96,0.00,,,0.00,Wunderground v.1.15,2013-05-21 11:59:00,
2013-05-21 08:10:00,66.0,64.8,29.89,SE,131,0.0,8.0,96,0.00,,,0.00,Wunderground v.1.15,2013-05-21 12:10:00,
2013-05-21 08:20:00,67.1,65.0,29.90,SE,131,0.0,8.0,93,0.00,,,0.00,Wunderground v.1.15,2013-05-21 12:20:00,
2013-05-21 08:30:00,66.9,64.5,29.90,SE,131,0.0,8.0,92,0.00,,,0.00,Wunderground v.1.15,2013-05-21 12:30:00,
2013-05-21 08:39:00,67.4,64.7,29.90,ESE,121,1.0,8.0,91,0.00,,,0.00,Wunderground v.1.15,2013-05-21 12:39:00,
2013-05-21 08:49:00,67.9,64.2,29.90,East,93,2.0,2.0,88,0.00,,,0.00,Wunderground v.1.15,2013-05-21 12:49:00,
2013-05-21 08:59:00,69.1,65.4,29.90,SE,141,1.0,8.0,88,0.00,,,0.00,Wunderground v.1.15,2013-05-21 12:59:00,
2013-05-21 09:10:00,69.6,64.5,29.90,SE,131,2.0,2.0,84,0.00,,,0.00,Wunderground v.1.15,2013-05-21 13:10:00,
2013-05-21 09:20:00,69.8,65.1,29.90,ESE,114,2.0,2.0,85,0.00,,,0.00,Wunderground v.1.15,2013-05-21 13:20:00,
2013-05-21 09:30:00,69.9,64.8,29.90,SE,131,2.0,2.0,84,0.00,,,0.00,Wunderground v.1.15,2013-05-21 13:30:00,
2013-05-21 09:40:00,70.6,65.2,29.89,East,95,1.0,1.0,83,0.00,,,0.00,Wunderground v.1.15,2013-05-21 13:40:00,
2013-05-21 09:49:00,70.4,64.6,29.90,SSE,162,1.0,1.0,82,0.00,,,0.00,Wunderground v.1.15,2013-05-21 13:49:00,
2013-05-21 10:00:00,70.9,65.1,29.90,SSE,158,0.0,8.0,82,0.00,,,0.00,Wunderground v.1.15,2013-05-21 14:00:00,
2013-05-21 10:10:00,71.5,65.0,29.90,SSE,148,0.0,8.0,80,0.00,,,0.00,Wunderground v.1.15,2013-05-21 14:10:00,
2013-05-21 10:19:00,71.1,65.3,29.90,SSE,148,0.0,8.0,82,0.00,,,0.00,Wunderground v.1.15,2013-05-21 14:19:00,
2013-05-21 10:30:00,71.1,66.4,29.90,ENE,69,0.0,8.0,85,0.00,,,0.00,Wunderground v.1.15,2013-05-21 14:30:00,
2013-05-21 10:40:00,71.8,67.0,29.90,SE,131,0.0,8.0,85,0.00,,,0.00,Wunderground v.1.15,2013-05-21 14:40:00,
2013-05-21 10:50:00,73.5,68.0,29.88,SSE,159,0.0,8.0,83,0.00,,,0.00,Wunderground v.1.15,2013-05-21 14:50:00,
2013-05-21 10:59:00,75.1,67.8,29.88,SE,137,0.0,8.0,78,0.00,,,0.00,Wunderground v.1.15,2013-05-21 14:59:00,
2013-05-21 11:10:00,75.8,67.3,29.87,ESE,121,1.0,1.0,75,0.00,,,0.00,Wunderground v.1.15,2013-05-21 15:10:00,
2013-05-21 11:19:00,76.5,68.4,29.88,WSW,238,0.0,8.0,76,0.00,,,0.00,Wunderground v.1.15,2013-05-21 15:19:00,
2013-05-21 11:30:00,77.6,67.4,29.88,SW,219,1.0,1.0,71,0.00,,,0.00,Wunderground v.1.15,2013-05-21 15:30:00,
2013-05-21 11:40:00,77.6,66.2,29.87,SW,226,0.0,8.0,68,0.00,,,0.00,Wunderground v.1.15,2013-05-21 15:40:00,
2013-05-21 11:49:00,77.6,65.8,29.88,East,79,0.0,8.0,67,0.00,,,0.00,Wunderground v.1.15,2013-05-21 15:49:00,
2013-05-21 12:00:00,79.0,67.5,29.88,SSE,159,1.0,1.0,68,0.00,,,0.00,Wunderground v.1.15,2013-05-21 16:00:00,
2013-05-21 12:10:00,79.0,67.1,29.88,South,184,0.0,0.0,67,0.00,,,0.00,Wunderground v.1.15,2013-05-21 16:10:00,
2013-05-21 12:20:00,78.1,65.8,29.88,WSW,249,1.0,1.0,66,0.00,,,0.00,Wunderground v.1.15,2013-05-21 16:20:00,
2013-05-21 12:30:00,77.7,64.1,29.88,WSW,252,0.0,0.0,63,0.00,,,0.00,Wunderground v.1.15,2013-05-21 16:30:00,
2013-05-21 12:39:00,78.8,64.2,29.87,SSW,205,0.0,0.0,61,0.00,,,0.00,Wunderground v.1.15,2013-05-21 16:39:00,
2013-05-21 12:50:00,79.2,63.6,29.87,West,276,1.0,3.0,59,0.00,,,0.00,Wunderground v.1.15,2013-05-21 16:50:00,
2013-05-21 12:59:00,80.3,64.2,29.87,WSW,249,0.0,0.0,58,0.00,,,0.00,Wunderground v.1.15,2013-05-21 16:59:00,
2013-05-21 13:10:00,80.7,64.1,29.87,SW,218,0.0,5.0,57,0.00,,,0.00,Wunderground v.1.15,2013-05-21 17:10:00,
2013-05-21 13:20:00,79.9,62.8,29.87,WNW,296,1.0,1.0,56,0.00,,,0.00,Wunderground v.1.15,2013-05-21 17:20:00,
2013-05-21 13:30:00,79.2,62.1,29.87,NW,309,1.0,5.0,56,0.00,,,0.00,Wunderground v.1.15,2013-05-21 17:30:00,
2013-05-21 13:40:00,79.2,62.1,29.87,NW,316,0.0,5.0,56,0.00,,,0.00,Wunderground v.1.15,2013-05-21 17:40:00,
2013-05-21 13:50:00,79.9,62.8,29.85,East,91,1.0,5.0,56,0.00,,,0.00,Wunderground v.1.15,2013-05-21 17:50:00,
2013-05-21 14:00:00,80.7,63.5,29.85,NW,324,0.0,5.0,56,0.00,,,0.00,Wunderground v.1.15,2013-05-21 18:00:00,
2013-05-21 14:09:00,81.8,64.6,29.85,SW,235,0.0,5.0,56,0.00,,,0.00,Wunderground v.1.15,2013-05-21 18:09:00,
2013-05-21 14:20:00,82.4,63.0,29.85,WSW,247,0.0,5.0,52,0.00,,,0.00,Wunderground v.1.15,2013-05-21 18:20:00,
2013-05-21 14:30:00,83.4,62.8,29.85,SSW,208,0.0,5.0,50,0.00,,,0.00,Wunderground v.1.15,2013-05-21 18:30:00,
2013-05-21 14:40:00,83.2,66.9,29.85,South,188,0.0,5.0,58,0.00,,,0.00,Wunderground v.1.15,2013-05-21 18:40:00,
2013-05-21 14:50:00,82.0,62.6,29.85,WNW,299,1.0,1.0,52,0.00,,,0.00,Wunderground v.1.15,2013-05-21 18:50:00,
2013-05-21 14:59:00,80.9,67.1,29.85,West,260,3.0,8.0,63,0.00,,,0.00,Wunderground v.1.15,2013-05-21 18:59:00,
2013-05-21 15:10:00,79.0,65.3,29.85,West,280,7.0,7.0,63,0.00,,,0.00,Wunderground v.1.15,2013-05-21 19:10:00,
2013-05-21 15:20:00,78.8,66.5,29.85,NW,318,5.0,5.0,66,0.00,,,0.00,Wunderground v.1.15,2013-05-21 19:20:00,
2013-05-21 15:30:00,78.3,66.4,29.85,West,279,4.0,4.0,67,0.00,,,0.00,Wunderground v.1.15,2013-05-21 19:30:00,
2013-05-21 15:40:00,77.6,65.8,29.83,NW,315,5.0,9.0,67,0.00,,,0.00,Wunderground v.1.15,2013-05-21 19:40:00,
2013-05-21 15:49:00,76.3,64.1,29.83,NW,317,6.0,8.0,66,0.00,,,0.00,Wunderground v.1.15,2013-05-21 19:49:00,
2013-05-21 15:59:00,76.3,65.0,29.83,WNW,302,7.0,7.0,68,0.00,,,0.00,Wunderground v.1.15,2013-05-21 19:59:00,
2013-05-21 16:10:00,76.7,64.5,29.82,WNW,302,5.0,7.0,66,0.00,,,0.00,Wunderground v.1.15,2013-05-21 20:10:00,
2013-05-21 16:20:00,76.3,64.5,29.82,West,260,5.0,6.0,67,0.00,,,0.00,Wunderground v.1.15,2013-05-21 20:20:00,
2013-05-21 16:30:00,75.8,64.5,29.82,West,270,5.0,5.0,68,0.00,,,0.00,Wunderground v.1.15,2013-05-21 20:30:00,
2013-05-21 16:40:00,75.4,63.2,29.83,WNW,287,6.0,6.0,66,0.00,,,0.00,Wunderground v.1.15,2013-05-21 20:40:00,
2013-05-21 16:50:00,74.9,63.6,29.83,WNW,299,5.0,6.0,68,0.00,,,0.00,Wunderground v.1.15,2013-05-21 20:50:00,
2013-05-21 16:59:00,73.9,62.7,29.83,West,270,6.0,6.0,68,0.00,,,0.00,Wunderground v.1.15,2013-05-21 20:59:00,
2013-05-21 17:10:00,73.7,62.9,29.82,WNW,299,5.0,5.0,69,0.00,,,0.00,Wunderground v.1.15,2013-05-21 21:10:00,
2013-05-21 17:20:00,73.3,62.5,29.82,NW,315,4.0,5.0,69,0.00,,,0.00,Wunderground v.1.15,2013-05-21 21:20:00,
2013-05-21 17:30:00,72.8,62.0,29.82,WNW,301,5.0,5.0,69,0.00,,,0.00,Wunderground v.1.15,2013-05-21 21:30:00,
2013-05-21 17:40:00,72.3,62.0,29.82,West,268,5.0,5.0,70,0.00,,,0.00,Wunderground v.1.15,2013-05-21 21:40:00,
2013-05-21 17:50:00,71.6,61.7,29.82,WNW,297,6.0,6.0,71,0.00,,,0.00,Wunderground v.1.15,2013-05-21 21:50:00,
2013-05-21 17:59:00,72.0,62.1,29.82,NW,304,5.0,8.0,71,0.00,,,0.00,Wunderground v.1.15,2013-05-21 21:59:00,
2013-05-21 18:09:00,71.3,61.4,29.82,WNW,299,5.0,8.0,71,0.00,,,0.00,Wunderground v.1.15,2013-05-21 22:09:00,
2013-05-21 18:20:00,70.6,61.5,29.81,WNW,291,5.0,5.0,73,0.00,,,0.00,Wunderground v.1.15,2013-05-21 22:20:00,
2013-05-21 18:30:00,70.9,61.0,29.81,West,271,2.0,2.0,71,0.00,,,0.00,Wunderground v.1.15,2013-05-21 22:30:00,
2013-05-21 18:40:00,70.4,61.3,29.80,West,279,2.0,2.0,73,0.00,,,0.00,Wunderground v.1.15,2013-05-21 22:40:00,
2013-05-21 18:49:00,70.1,61.4,29.81,West,268,1.0,1.0,74,0.00,,,0.00,Wunderground v.1.15,2013-05-21 22:49:00,
2013-05-21 18:59:00,69.4,61.1,29.81,WNW,294,1.0,1.0,75,0.00,,,0.00,Wunderground v.1.15,2013-05-21 22:59:00,
2013-05-21 19:10:00,68.8,61.3,29.80,WNW,284,2.0,2.0,77,0.00,,,0.00,Wunderground v.1.15,2013-05-21 23:10:00,
2013-05-21 19:20:00,67.8,60.7,29.80,NW,304,2.0,2.0,78,0.00,,,0.00,Wunderground v.1.15,2013-05-21 23:20:00,
2013-05-21 19:30:00,67.3,60.6,29.80,WSW,244,2.0,2.0,79,0.00,,,0.00,Wunderground v.1.15,2013-05-21 23:30:00,
2013-05-21 19:39:00,66.4,59.7,29.82,West,262,2.0,12.0,79,0.00,,,0.00,Wunderground v.1.15,2013-05-21 23:39:00,
2013-05-21 19:50:00,66.1,59.7,29.82,West,260,1.0,1.0,80,0.00,,,0.00,Wunderground v.1.15,2013-05-21 23:50:00,
2013-05-21 20:00:00,65.8,59.8,29.82,West,274,1.0,12.0,81,0.00,,,0.00,Wunderground v.1.15,2013-05-22 00:00:00,
2013-05-21 20:10:00,65.6,60.3,29.80,West,276,0.0,12.0,83,0.00,,,0.00,Wunderground v.1.15,2013-05-22 00:10:00,
2013-05-21 20:19:00,65.6,59.6,29.80,West,275,0.0,12.0,81,0.00,,,0.00,Wunderground v.1.15,2013-05-22 00:19:00,
2013-05-21 20:30:00,64.7,59.4,29.80,WNW,283,3.0,13.0,83,0.00,,,0.00,Wunderground v.1.15,2013-05-22 00:30:00,
2013-05-21 20:40:00,62.9,59.3,29.82,NNE,23,6.0,6.0,88,0.00,,,0.01,Wunderground v.1.15,2013-05-22 00:40:00,
2013-05-21 20:50:00,62.4,59.1,29.81,WNW,293,2.0,12.0,89,0.00,,,0.01,Wunderground v.1.15,2013-05-22 00:50:00,
2013-05-21 21:00:00,61.8,59.1,29.81,West,265,8.0,8.0,91,0.00,,,0.01,Wunderground v.1.15,2013-05-22 01:00:00,
2013-05-21 21:10:00,61.3,59.6,29.85,WNW,293,7.0,12.0,94,0.00,,,0.01,Wunderground v.1.15,2013-05-22 01:10:00,
2013-05-21 21:20:00,60.5,58.8,29.85,NW,308,10.0,10.0,94,0.00,,,0.01,Wunderground v.1.15,2013-05-22 01:20:00,
2013-05-21 21:30:00,59.8,58.7,29.85,WNW,299,9.0,12.0,96,0.66,,,0.06,Wunderground v.1.15,2013-05-22 01:30:00,
2013-05-21 21:40:00,59.8,58.9,29.88,West,280,8.0,12.0,97,0.69,,,0.16,Wunderground v.1.15,2013-05-22 01:40:00,
2013-05-21 21:49:00,60.2,59.3,29.88,NW,320,5.0,5.0,97,0.21,,,0.22,Wunderground v.1.15,2013-05-22 01:49:00,
2013-05-21 22:00:00,60.7,59.8,29.88,NW,315,1.0,1.0,97,0.08,,,0.24,Wunderground v.1.15,2013-05-22 02:00:00,
2013-05-21 22:10:00,61.2,59.8,29.91,NE,47,4.0,4.0,95,0.40,,,0.31,Wunderground v.1.15,2013-05-22 02:10:00,
2013-05-21 22:20:00,61.0,59.3,29.88,NNW,348,5.0,12.0,94,0.67,,,0.40,Wunderground v.1.15,2013-05-22 02:20:00,
2013-05-21 22:30:00,61.2,59.5,29.88,ESE,116,5.0,12.0,94,0.31,,,0.47,Wunderground v.1.15,2013-05-22 02:30:00,
2013-05-21 22:39:00,60.9,58.9,29.85,SE,145,4.0,4.0,93,0.40,,,0.52,Wunderground v.1.15,2013-05-22 02:39:00,
2013-05-21 22:50:00,60.9,58.9,29.80,NNW,340,6.0,12.0,93,0.19,,,0.56,Wunderground v.1.15,2013-05-22 02:50:00,
2013-05-21 23:00:00,60.7,57.7,29.80,NW,316,8.0,12.0,90,0.06,,,0.57,Wunderground v.1.15,2013-05-22 03:00:00,
2013-05-21 23:10:00,60.1,56.5,29.80,North,351,7.0,12.0,88,0.00,,,0.57,Wunderground v.1.15,2013-05-22 03:10:00,
2013-05-21 23:19:00,59.6,55.4,29.79,SE,137,5.0,5.0,86,0.00,,,0.57,Wunderground v.1.15,2013-05-22 03:19:00,
2013-05-21 23:29:00,59.6,55.1,29.79,SSE,158,5.0,12.0,85,0.00,,,0.57,Wunderground v.1.15,2013-05-22 03:29:00,
2013-05-21 23:40:00,59.6,53.8,29.79,ENE,71,5.0,12.0,81,0.00,,,0.57,Wunderground v.1.15,2013-05-22 03:40:00,
2013-05-21 23:50:00,59.5,53.3,29.79,ENE,73,6.0,12.0,80,0.00,,,0.57,Wunderground v.1.15,2013-05-22 03:50:00,